Showing default

DUMMY SAT, 40073

Orbit data source: Space-Track

DUMMY SAT, 40073 is a Commonwealth of Independent States-origin payload satellite in SSO that was launched on Tue, 08 Jul 2014 UTC via a SOYUZ-2-1B launch vehicle from the Tyuratam Missile And Space Complex (TTMTR). Payload-class satellites include a variety of spacecraft equipped with specific instruments for various scientific and technological missions. These include communications satellites like Starlink; space stations such as the ISS; scientific satellites like the Hubble; Earth observation satellites from companies like Planet Labs, Umbra, and HawkEye 360; GPS; miniature CubeSats for education and research; and military/defense satellites.

Loading next visibility...
Identifier
40073, 2014-037E
Orbit
SSO
Last TLE update
8 hours ago
Origin
Manufacturer
ComDev
Mission
Non-operational Civil Technology
Bus & Motor
Unknown
Mass
75 kg wet, 75 kg dry
Launch date (UTC)
2014-07-08 (11 years ago)
Launch vehicle
SOYUZ-2-1B
Launch site
Tyuratam Missile And Space Complex (TTMTR)
Object type
Payload
Rocket body
Debris
Shape & HBR
Box, 0.8 m
Radar Cross Section
0.800 m², Medium (>0.1 m² and < 1m²)

Expand to show TLE details & history

TLE from 8 hours ago
0 DUMMY SAT
1 40073U 14037E   25183.82113800  .00000274  00000-0  41248-4 0  9997
2 40073  98.3365 114.0522 0005750   9.3014 350.8303 14.82608128593749
Epoch: 2025-07-02T19:42Z
TLE epoch observation values (Epoch: 2025-07-02T19:42:26.323Z)
Latitude
-0.00006°
Longitude
-102.65421°
Altitude
620.141 km
Speed
7.551 km/s
True Right ascension
07h 36m 12s
True Declination
0° 00' 00"
Sunlit
Object was in daylight at epoch
Visualization orbit readout
Latitude
-13.25318°
Longitude
-100.33815°
Altitude
623.025 km
Speed
7.548 km/s
Apparent Right ascension
06h 01m 02s
Apparent Declination
-29° 33' 15"
Sunlit
Object is in daylight
Visualization observer readout
Local Sidereal Time
15:30:00
Azimuth
276.744° WNW
Elevation
-57.564°
Doppler factor
1
Orbital elements
Apogee altitude
622.184 km
Perigee altitude
614.138 km
Semi-major axis
6,996.298 km
Eccentricity
0.00058
Inclination
98.3365°
RAAN
114.0522°
Arg. of periapsis
9.3014°
True anomaly
Unknown
Mean anomaly
350.8303°
Eccentric anomaly
Unknown
Mean motion
3.70886 °/min
Orbital period
97.06 mins
BSTAR
0.000041248
Loading maneuver chart data...
Loading SW <> Apogee altitude chart data...
Loading historical data...
Loading historical data...
Loading historical data...
Loading historical data...
Loading historical data...
Loading historical data...
Loading historical data...

DUMMY SAT Visibility forecast

Observer location: undefined°, undefined°

Span
Click to sort rows by Start time (UTC) header in descending order
Start Az.
Max El. time (UTC)
Max El. Az.
Max El.
End time (UTC)
End Az.
6 mins2025-07-03 07:37:46.235Z40.977° NE2025-07-03 07:40:46.235Z98.289° ESE27.559°2025-07-03 07:43:46.235Z154.543° SSE
5 mins2025-07-03 09:14:46.235Z327.016° NNW2025-07-03 09:16:46.235Z290.069° WNW20.538°2025-07-03 09:19:46.235Z244.109° WSW
5 mins2025-07-03 18:32:46.235Z106.117° ESE2025-07-03 18:34:46.235Z66.005° ENE23.088°2025-07-03 18:37:46.235Z16.477° NNE
5 mins2025-07-03 20:08:46.235Z224.352° SW2025-07-03 20:10:46.235Z266.312° W24.101°2025-07-03 20:13:46.235Z317.304° NNW
|